COSMOS 2251 DEB, 35023

Orbit data source: Space-Track

COSMOS 2251 DEB, 35023 is space debris in LEO originally from a launch on Wed, 16 Jun 1993 UTC launched from the Plesetsk Missile And Space Complex (PKMTR). The debris from Iridium 33, an American commercial communications satellite, has been tracked extensively since its accidental collision with the defunct Russian satellite Cosmos 2251 in 2009. This event, occurring at high speed in low Earth orbit (LEO), generated thousands of pieces of space debris, significantly increasing the risk of further collisions. The Iridium 33 debris cloud has impacted space traffic management and orbital debris mitigation strategies, making it a subject of ongoing study in space situational awareness.

Loading next visibility...
Identifier
35023, 1993-036AGL
Orbit
LEO
Country
Flag of CISCIS
Related business
Manufacturer
Unknown
Mission
Spacecraft
Bus & Motor
Unknown
Mass
Unknown
Launch date (UTC)
1993-06-16 (33 years ago)
Launch vehicle
Unknown
Launch site
Plesetsk Missile And Space Complex (PKMTR)
Object type
Payload
Rocket body
Debris
Shape & HBR
Unknown shape, 0.1 m
Radar Cross Section
Small (<0.1 m²)

Expand to show TLE details & history
Last TLE update: 8 hours ago

TLE from 8 hours ago
0 COSMOS 2251 DEB
1 35023U 93036AGL 26038.28898566  .00025031  00000-0  21058-2 0  9994
2 35023  74.0358  98.3167 0028141 169.2319 307.6048 14.97858077891252
Epoch: 2026-02-07T06:56Z
TLE epoch observation values (Epoch: 2026-02-07T06:56:08.361Z)
Latitude
59.40513°
Longitude
8.10529°
Altitude
571.344 km
Speed
7.588 km/s
True Right ascension
16h 38m 13s
True Declination
59° 15' 01"
Sunlit
Object was in daylight at epoch
Visualization orbit readout
Latitude
Unknown
Longitude
Unknown
Altitude
Unknown
Speed
Unknown
Apparent Right ascension
Unknown
Apparent Declination
Unknown
Sunlit
N/A
Visualization observer readout
Local Sidereal Time
16:53:29
Azimuth
Unknown
Elevation
Unknown
Doppler factor
Unknown
Orbital elements
Apogee altitude
590.627 km
Perigee altitude
551.516 km
Semi-major axis
6,949.209 km
Eccentricity
0.00281
Inclination
74.0358°
RAAN
98.3167°
Arg. of periapsis
169.2319°
True anomaly
307.34878°
Mean anomaly
307.6048°
Eccentric anomaly
307.47684°
Mean motion
3.74662 °/min
Orbital period
96.09 mins
BSTAR
0.0021058
Loading maneuver chart data...
Computing Atmospheric mass density...

Documentation

Showing up to 5 results
|